TimeEDT,TemperatureF,Dew PointF,Humidity,Sea Level PressureIn,VisibilityMPH,Wind Direction,Wind SpeedMPH,Gust SpeedMPH,PrecipitationIn,Events,Conditions,WindDirDegrees,DateUTC
12:00 AM,50.0,44.6,82,30.45,10.0,Calm,Calm,-,N/A,,Clear,0,2013-05-02 04:00:00
12:20 AM,46.4,44.6,93,30.46,10.0,Calm,Calm,-,N/A,,Clear,0,2013-05-02 04:20:00
12:40 AM,46.4,44.6,93,30.46,10.0,Calm,Calm,-,N/A,,Clear,0,2013-05-02 04:40:00
1:00 AM,44.6,44.6,100,30.46,10.0,Calm,Calm,-,N/A,,Clear,0,2013-05-02 05:00:00
1:20 AM,44.6,44.6,100,30.46,10.0,Calm,Calm,-,N/A,,Clear,0,2013-05-02 05:20:00
1:40 AM,42.8,42.8,100,30.45,7.0,Calm,Calm,-,N/A,,Clear,0,2013-05-02 05:40:00
2:00 AM,42.8,42.8,100,30.45,7.0,Calm,Calm,-,N/A,,Clear,0,2013-05-02 06:00:00
2:20 AM,42.8,42.8,100,30.45,4.0,Calm,Calm,-,N/A,,Clear,0,2013-05-02 06:20:00
2:40 AM,41.0,41.0,100,30.44,4.0,Calm,Calm,-,N/A,,Clear,0,2013-05-02 06:40:00
3:00 AM,41.0,41.0,100,30.44,1.0,Calm,Calm,-,N/A,,Mist,0,2013-05-02 07:00:00
3:20 AM,41.0,41.0,100,30.44,0.8,Calm,Calm,-,N/A,,Mostly Cloudy,0,2013-05-02 07:20:00
3:40 AM,41.0,41.0,100,30.44,7.0,Calm,Calm,-,N/A,,Scattered Clouds,0,2013-05-02 07:40:00
4:00 AM,41.0,41.0,100,30.44,0.5,Calm,Calm,-,N/A,Fog,Fog,0,2013-05-02 08:00:00
4:20 AM,37.4,37.4,100,30.44,0.8,Calm,Calm,-,N/A,,Mostly Cloudy,0,2013-05-02 08:20:00
4:40 AM,37.4,37.4,100,30.44,0.5,Calm,Calm,-,N/A,Fog,Fog,0,2013-05-02 08:40:00
5:00 AM,41.0,41.0,100,30.44,1.5,Calm,Calm,-,N/A,,Scattered Clouds,0,2013-05-02 09:00:00
5:20 AM,37.4,37.4,100,30.44,0.5,Calm,Calm,-,N/A,Fog,Fog,0,2013-05-02 09:20:00
5:40 AM,37.4,37.4,100,30.44,0.2,Calm,Calm,-,N/A,Fog,Fog,0,2013-05-02 09:40:00
6:00 AM,37.4,37.4,100,30.44,0.5,Calm,Calm,-,N/A,Fog,Fog,0,2013-05-02 10:00:00
6:20 AM,35.6,35.6,100,30.45,0.2,Calm,Calm,-,N/A,Snow,Light Snow,0,2013-05-02 10:20:00
6:40 AM,37.4,37.4,100,30.45,0.8,Calm,Calm,-,N/A,,Mostly Cloudy,0,2013-05-02 10:40:00
6:45 AM,37.4,37.4,100,30.45,0.5,Calm,Calm,-,N/A,Fog,Fog,0,2013-05-02 10:45:00
6:50 AM,39.2,39.2,100,30.45,10.0,Calm,Calm,-,N/A,,Clear,0,2013-05-02 10:50:00
7:54 AM,46.4,46.4,100,30.46,10.0,Calm,Calm,-,N/A,,Clear,0,2013-05-02 11:54:00
8:45 AM,51.8,48.2,88,30.47,10.0,Variable,3.5,-,N/A,,Clear,0,2013-05-02 12:45:00
9:45 AM,55.4,46.4,72,30.47,10.0,ENE,6.9,-,N/A,,Partly Cloudy,70,2013-05-02 13:45:00
10:55 AM,60.8,48.2,63,30.46,10.0,NE,4.6,-,N/A,,Clear,40,2013-05-02 14:55:00
11:55 AM,62.6,46.4,55,30.45,10.0,Calm,Calm,-,N/A,,Clear,0,2013-05-02 15:55:00
12:50 PM,64.4,48.2,56,30.43,10.0,Variable,3.5,-,N/A,,Clear,0,2013-05-02 16:50:00
1:47 PM,66.2,46.4,49,30.42,10.0,East,4.6,-,N/A,,Clear,80,2013-05-02 17:47:00
2:45 PM,69.8,46.4,43,30.40,10.0,East,6.9,-,N/A,,Clear,90,2013-05-02 18:45:00
3:50 PM,69.8,46.4,43,30.38,10.0,NE,4.6,-,N/A,,Clear,50,2013-05-02 19:50:00
4:50 PM,71.6,46.4,41,30.36,10.0,SSE,4.6,-,N/A,,Clear,150,2013-05-02 20:50:00
5:50 PM,69.8,48.2,46,30.36,10.0,SE,5.8,-,N/A,,Clear,130,2013-05-02 21:50:00
6:50 PM,66.2,48.2,52,30.35,10.0,SSE,4.6,-,N/A,,Clear,150,2013-05-02 22:50:00
7:50 PM,62.6,48.2,59,30.35,10.0,SE,4.6,-,N/A,,Clear,140,2013-05-02 23:50:00
9:00 PM,53.6,46.4,77,30.36,10.0,Calm,Calm,-,N/A,,Clear,0,2013-05-03 01:00:00
9:20 PM,53.6,48.2,82,30.36,10.0,Calm,Calm,-,N/A,,Clear,0,2013-05-03 01:20:00
9:40 PM,48.2,46.4,93,30.36,10.0,Calm,Calm,-,N/A,,Clear,0,2013-05-03 01:40:00
10:00 PM,50.0,50.0,100,30.36,10.0,Calm,Calm,-,N/A,,Clear,0,2013-05-03 02:00:00
10:20 PM,46.4,46.4,100,30.35,10.0,Calm,Calm,-,N/A,,Clear,0,2013-05-03 02:20:00
11:40 PM,46.4,44.6,93,30.35,10.0,Calm,Calm,-,N/A,,Clear,0,2013-05-03 03:40:00